Overview Statistics Trail Chart Weather Telemetry Raw packets
 

This is the latest recevied weather packets stored in our database for station/object Waldburg. If no packets are shown the sender has not sent any weather packets the latest 10 day(s).

<< 6 7 8 9 10 11 12 >>
Time Temp. Humidity Pressure Rain* Wind** Luminosity Snow
1788361331 23.33° C 55% 1018.7 hPa 0 mm - - -
1788359531 22.78° C 58% 1018.8 hPa 0 mm - - -
1788357730 23.89° C 52% 1018.8 hPa 0 mm - - -
1788355930 23.33° C 51% 1018.9 hPa 0 mm - - -
1788354130 23.33° C 53% 1019 hPa 0 mm - - -
1788352330 24.44° C 57% 1019.1 hPa 0 mm - - -
1788350530 23.33° C 57% 1019.3 hPa 0 mm - - -
1788348731 23.33° C 58% 1019.5 hPa 0 mm - - -
1788346929 22.78° C 62% 1019.7 hPa 0 mm - - -
1788345130 22.22° C 61% 1019.8 hPa 0 mm - - -
1788343330 21.11° C 68% 1019.9 hPa 0 mm - - -
1788341530 20.56° C 71% 1019.9 hPa 0 mm - - -
1788339730 19.44° C 73% 1019.7 hPa 0 mm - - -
1788337930 18.33° C 75% 1019.6 hPa 0 mm - - -
1788336131 17.78° C 78% 1019.6 hPa 0 mm - - -
1788334330 16.67° C 78% 1019.4 hPa 0 mm - - -
1788332530 15.56° C 80% 1019.5 hPa 0 mm - - -
1788330729 15° C 83% 1019.5 hPa 0 mm - - -
1788328929 13.33° C 90% 1019.3 hPa 0 mm - - -
1788327130 12.22° C 89% 1019.2 hPa 0 mm - - -
1788325331 11.67° C 88% 1019.1 hPa 0 mm - - -
1788323529 11.67° C 87% 1018.9 hPa 0 mm - - -
1788321730 12.22° C 86% 1018.8 hPa 0 mm - - -
1788319930 12.78° C 84% 1018.8 hPa 0 mm - - -
1788318129 12.78° C 84% 1018.8 hPa 0 mm - - -

* Rain since midnight (hover to see other rain measurements)
** Current wind speed in m/s (hover to see current wind gust speed)